Find Starlink 5628

NORAD ID: 55466 Int'l Des: 2023-015 Owner: SPXS Country: US Constellation: starlink operational
LEOCIRCULAR

リアルタイム位置

3D地球を読み込み中...

Starlink 5628について

説明を読み込み中...

次回通過

Passes for default location (London). Set your location on the main map for personalized predictions.

高度履歴

Loading altitude history...

軌道要素

1 55466U 23015T 26121.47646418 -.00001087 00000-0 -29955-4 0 9991
2 55466 43.0065 30.7286 0002032 257.0631 102.9994 15.27593045178790
Epoch: May 1, 2026 • Age: 17 hours

現在のステータス

高度 493.6 km
速度 7.62 km/s
衛星直下点 -39.72°S, 14.16°W
打ち上げ日 Feb 2, 2023
運用期間 3.2 years
タイプ internet

技術仕様

分類 Payload
質量 305.00 kg
乾燥質量 290.00 kg
総質量 305.00 kg
長さ 0.20 m
直径 2.80 m
スパン 9.00 m
形状 Box + pan
製造者 SPXS
バスタイプ Starlink
フェーズステータス In Orbit
所有者/国 SPXS/US

Most Searched